St. Johnsbury, VT

5:55 AM EST on November 19, 2017 (GMT -0500)
St. Johnsbury

Weather History for K1V4 - June, 2014

Change the Weather History Date:

Wednesday, June 4, 2014

  Actual Average Record
Temperature  
Mean Temperature 67 °F 62 °F  
Max Temperature 76 °F 74 °F 101 °F (1919)
Min Temperature 57 °F 51 °F 30 °F (1944)
Degree Days  
Heating Degree Days 0 4  
Month to date heating degree days 18  
Since 1 June heating degree days 18  
Since 1 July heating degree days 7722  
Cooling Degree Days 2 2  
Month to date cooling degree days 6 6  
Year to date cooling degree days 10 24  
Since 1 June cooling degree days 6 6  
Growing Degree Days 18 (Base 50)    
Moisture  
Dew Point 52 °F    
Average Humidity 60    
Maximum Humidity 78    
Minimum Humidity 41    
Precipitation  
Precipitation 0.00 in 0.12 in 0.91 in (1914)
Month to date precipitation 0.00 0.50  
Year to date precipitation 15.70 13.91  
Sea Level Pressure  
Sea Level Pressure 29.74 in    
Wind  
Wind Speed - (North)    
Max Wind Speed -    
Max Gust Speed -    
T = Trace of Precipitation, MM = Missing Value Source: NWS Daily Summary

Daily Weather History Graph

Daily Weather History Graph

Search for Another Location

Airport or City:

Trip Planner

Search our weather history database for the weather conditions in past years. The results will help you decide how hot, cold, wet, or windy it might be!

Date:

Astronomy

Jun. 04, 2014 Rise Set
Actual Time 5:05 AM EDT 8:27 PM EDT
Civil Twilight 4:29 AM EDT 9:03 PM EDT
Nautical Twilight 3:42 AM EDT 9:51 PM EDT
Astronomical Twilight 2:43 AM EDT 10:50 PM EDT
Moon 11:32 AM EDT (6/4) 12:15 AM EDT (6/4)
Length of Visible Light 16h 34m
Length of Day
15h 22m
Waxing Crescent, 39% of the Moon is Illuminated
Jun 4
Waxing Crescent
Jun 5
First Quarter
Jun 13
Full
Jun 19
Last Quarter
Jun 27
New

Hourly Weather History & Observations

Time (EDT) Temp. Dew Point Humidity Pressure Visibility Wind Dir Wind Speed Gust Speed Precip Events Conditions
12:54 AM 62.1 °F 52.0 °F 70% 29.79 in - North - - N/A   Unknown
1:54 AM 62.1 °F 52.0 °F 70% 29.78 in - North - - N/A   Unknown
2:54 AM 61.0 °F 51.1 °F 70% 29.78 in - North - - N/A   Unknown
3:54 AM 61.0 °F 50.0 °F 67% 29.78 in - North - - N/A   Unknown
4:54 AM 61.0 °F 50.0 °F 67% 29.79 in - North - - N/A   Unknown
5:54 AM 60.1 °F 50.0 °F 69% 29.80 in - North - - N/A   Unknown
6:54 AM 60.1 °F 51.1 °F 72% 29.80 in - North - - N/A   Unknown
7:54 AM 60.1 °F 52.0 °F 75% 29.81 in - North - - N/A   Unknown
8:54 AM 60.1 °F 54.0 °F 80% 29.82 in - North - - N/A   Unknown
9:54 AM 60.1 °F 54.0 °F 80% 29.82 in - North - - N/A   Unknown
10:54 AM 64.0 °F 55.0 °F 73% 29.79 in - North - - N/A   Unknown
11:54 AM 66.9 °F 55.0 °F 66% 29.77 in - North - - N/A   Unknown
12:54 PM 73.0 °F 51.1 °F 46% 29.73 in - North - - N/A   Unknown
1:54 PM 72.0 °F 50.0 °F 46% 29.72 in - North - - N/A   Unknown
2:54 PM 73.9 °F 51.1 °F 45% 29.69 in - North - - N/A   Unknown
3:54 PM 75.0 °F 52.0 °F 44% 29.68 in - North - - N/A   Unknown
4:54 PM 73.9 °F 51.1 °F 45% 29.67 in - North - - N/A   Unknown
5:54 PM 73.0 °F 54.0 °F 51% 29.66 in - North - - N/A   Unknown
6:54 PM 73.0 °F 48.0 °F 41% 29.67 in - North - - N/A   Unknown
7:54 PM 69.1 °F 52.0 °F 54% 29.68 in - North - - N/A   Unknown
8:54 PM 66.0 °F 55.0 °F 68% 29.70 in - North - - N/A   Unknown
9:54 PM 64.0 °F 55.0 °F 73% 29.71 in - North - - N/A   Unknown
10:54 PM 61.0 °F 54.0 °F 78% 29.71 in - North - - N/A   Unknown
11:54 PM 60.1 °F 54.0 °F 80% 29.71 in - North - - N/A   Unknown